User: anonymous   Login
Location: Oshawa
(43.9000°N, 78.8670°W)
Time: 17:27:03
(UTC-04:00)
Language:

ITAMSAT 1 - Orbit

View from above orbital plane
View from above orbital plane
View from above satellite
View from above satellite

Ground track
Ground track

The orbit data is extracted from the following two-line orbital elements,

1 22826U 93061D   15245.83494123 +.00000048 +00000-0 +35878-4 0  9997
2 22826 098.7097 196.1502 0010108 074.7670 285.4629 14.30219087144186
Epoch (UTC): 02 September 2015 20:02:18
Eccentricity: 0.0010108
inclination: 98.7097°
perigee height: 784 km
apogee height: 798 km
right ascension of ascending node: 196.1502°
argument of perigee: 74.7670°
revolutions per day: 14.30219087
mean anomaly at epoch: 285.4629°
orbit number at epoch: 14418

The dashed part of the orbit path shows where the satellite is in the earth's shadow,  

DLR